Weather History for Muncie, IN

Change the Weather History Date:

Friday, December 6, 2013

  Actual Average Record
Temperature  
Mean Temperature 26 °F 34 °F  
Max Temperature 28 °F 41 °F 69 °F (1998)
Min Temperature 23 °F 26 °F 5 °F (2007)
Degree Days  
Heating Degree Days 39 31  
Month to date heating degree days 147 182  
Since 1 July heating degree days 1398 1317  
Cooling Degree Days 0 0  
Month to date cooling degree days 0 0  
Year to date cooling degree days 973 956  
Moisture  
Dew Point 21 °F    
Average Humidity 82    
Maximum Humidity 88    
Minimum Humidity 75    
Precipitation  
Precipitation 0.04 in 0.10 in 0.50 in (1971)
Month to date precipitation 0.20 0.60  
Year to date precipitation 34.62 37.84  
Sea Level Pressure  
Sea Level Pressure 30.27 in    
Wind  
Wind Speed 8 mph (NNW)    
Max Wind Speed 13 mph    
Max Gust Speed 20 mph    
Visibility 6 miles    
Events Snow    
T = Trace of Precipitation, MM = Missing Value Source: NWS Daily Summary

Daily Weather History Graph

Daily Weather History Graph

Search for Another Location

Airport:

Trip Planner

Search our weather history database for the weather conditions in past years. The results will help you decide how hot, cold, wet, or windy it might be!

Date:

Astronomy

Dec. 06, 2013 Rise Set
Actual Time 7:49 AM EST 5:15 PM EST
Civil Twilight 7:19 AM EST 5:45 PM EST
Nautical Twilight 6:45 AM EST 6:19 PM EST
Astronomical Twilight 6:12 AM EST 6:52 PM EST
Moon 10:54 AM EST (12/6) 9:46 PM EST (12/6)
Length of Visible Light 10h 26m
Length of Day
9h 25m
Waxing Crescent, 19% of the Moon is Illuminated
Dec 6
Waxing Crescent
Dec 9
First Quarter
Dec 17
Full
Dec 25
Last Quarter
Jan 1
New

Hourly Weather History & Observations

Time (EST) Temp. Windchill Dew Point Humidity Pressure Visibility Wind Dir Wind Speed Gust Speed Precip Events Conditions
12:01 AM 24.1 °F 17.0 °F 21.9 °F 91% 30.18 in 1.0 mi NW 5.8 mph - 0.01 in Snow Light Snow
12:14 AM 24.1 °F 15.2 °F 21.9 °F 91% 30.19 in 0.8 mi NW 8.1 mph - 0.02 in Snow Light Snow
12:27 AM 24.1 °F 16.0 °F 21.9 °F 91% 30.19 in 1.0 mi NW 6.9 mph - 0.02 in Snow Light Snow
12:34 AM 24.1 °F 16.0 °F 21.9 °F 91% 30.19 in 1.2 mi NW 6.9 mph - 0.02 in Snow Light Snow
12:53 AM 24.1 °F 17.0 °F 21.0 °F 88% 30.20 in 0.8 mi NW 5.8 mph - 0.03 in Snow Light Snow
1:12 AM 24.1 °F 15.2 °F 21.0 °F 88% 30.17 in 0.8 mi NW 8.1 mph - 0.01 in Snow Light Snow
1:14 AM 24.1 °F 14.4 °F 21.0 °F 88% 30.17 in 1.0 mi NW 9.2 mph - 0.01 in Snow Light Snow
1:37 AM 24.1 °F 15.2 °F 21.0 °F 88% 30.16 in 3.0 mi NW 8.1 mph - 0.01 in Snow Light Snow
1:51 AM 24.8 °F 19.1 °F 21.2 °F 86% 30.16 in 9.0 mi WNW 4.6 mph - 0.01 in   Overcast
1:53 AM 24.1 °F 18.2 °F 21.0 °F 88% 30.19 in 10.0 mi WNW 4.6 mph - 0.01 in   Overcast
2:53 AM 24.1 °F 16.0 °F 19.0 °F 81% 30.21 in 5.0 mi NW 6.9 mph - 0.00 in Snow Light Snow
3:21 AM 24.1 °F 18.2 °F 19.9 °F 84% 30.19 in 2.5 mi WNW 4.6 mph - 0.00 in Snow Light Snow
3:30 AM 24.1 °F 17.0 °F 19.9 °F 84% 30.19 in 4.0 mi WNW 5.8 mph - 0.00 in Snow Light Snow
3:53 AM 24.1 °F 17.0 °F 19.9 °F 84% 30.22 in 3.0 mi WNW 5.8 mph - 0.00 in Snow Light Snow
4:53 AM 25.0 °F 16.3 °F 19.9 °F 81% 30.24 in 10.0 mi WNW 8.1 mph - 0.00 in   Overcast
5:53 AM 25.0 °F 18.1 °F 19.0 °F 78% 30.22 in 10.0 mi NW 5.8 mph - N/A   Overcast
6:53 AM 25.0 °F 16.3 °F 19.0 °F 78% 30.25 in 10.0 mi NW 8.1 mph - N/A   Overcast
7:53 AM 25.0 °F 18.1 °F 19.9 °F 81% 30.26 in 10.0 mi NW 5.8 mph - N/A   Overcast
8:53 AM 25.0 °F 14.8 °F 19.0 °F 78% 30.27 in 9.0 mi NW 10.4 mph - N/A   Overcast
9:53 AM 26.1 °F 17.6 °F 19.9 °F 78% 30.29 in 9.0 mi NW 8.1 mph - N/A   Overcast
10:53 AM 26.1 °F 16.2 °F 19.9 °F 78% 30.32 in 9.0 mi NNW 10.4 mph - N/A   Overcast
11:53 AM 27.0 °F 19.5 °F 19.9 °F 75% 30.30 in 10.0 mi NNW 6.9 mph - N/A   Overcast
12:53 PM 27.0 °F 18.7 °F 21.0 °F 78% 30.27 in 10.0 mi North 8.1 mph - N/A   Overcast
1:53 PM 27.0 °F 18.7 °F 21.0 °F 78% 30.28 in 10.0 mi NW 8.1 mph - N/A   Overcast
2:43 PM 28.0 °F 19.3 °F 21.9 °F 78% 30.24 in 8.0 mi North 9.2 mph - N/A   Overcast
2:53 PM 28.0 °F 18.6 °F 21.0 °F 75% 30.26 in 8.0 mi North 10.4 mph - N/A   Overcast
3:15 PM 27.0 °F 17.3 °F 21.9 °F 81% 30.23 in 2.5 mi North 10.4 mph - 0.00 in Snow Light Snow
3:53 PM 27.0 °F 18.7 °F 21.9 °F 81% 30.27 in 4.0 mi North 8.1 mph - 0.00 in   Haze
4:08 PM 28.0 °F 20.0 °F 21.9 °F 78% 30.26 in 4.0 mi North 8.1 mph - 0.00 in Snow Light Snow
4:53 PM 27.0 °F 18.0 °F 21.0 °F 78% 30.28 in 10.0 mi North 9.2 mph - 0.00 in   Overcast
5:14 PM 27.0 °F 17.3 °F 21.0 °F 78% 30.27 in 2.0 mi NNW 10.4 mph - 0.00 in Snow Light Snow
5:26 PM 27.0 °F 17.3 °F 21.0 °F 78% 30.28 in 3.0 mi North 10.4 mph - 0.00 in Snow Light Snow
5:33 PM 27.0 °F 17.3 °F 21.0 °F 78% 30.28 in 4.0 mi North 10.4 mph - 0.00 in Snow Light Snow
5:53 PM 27.0 °F 18.7 °F 21.9 °F 81% 30.30 in 5.0 mi NNW 8.1 mph - 0.00 in Snow Light Snow
6:27 PM 27.0 °F 19.5 °F 21.9 °F 81% 30.30 in 2.0 mi NNW 6.9 mph - 0.00 in Snow Light Snow
6:34 PM 26.1 °F 17.6 °F 21.9 °F 84% 30.31 in 1.2 mi NNW 8.1 mph - 0.00 in Snow Light Snow
6:53 PM 26.1 °F 17.6 °F 21.9 °F 84% 30.33 in 2.5 mi North 8.1 mph - 0.00 in Snow Light Snow
6:55 PM 26.1 °F 17.6 °F 21.9 °F 84% 30.31 in 3.0 mi North 8.1 mph - 0.00 in Snow Light Snow
7:07 PM 26.1 °F 16.8 °F 21.9 °F 84% 30.32 in 2.0 mi NNW 9.2 mph - 0.00 in Snow Light Snow
7:16 PM 26.1 °F 16.2 °F 21.9 °F 84% 30.31 in 1.5 mi North 10.4 mph - 0.01 in Snow Light Snow
7:35 PM 25.0 °F 15.5 °F 21.9 °F 88% 30.31 in 2.0 mi North 9.2 mph - 0.01 in Snow Light Snow
7:53 PM 25.0 °F 16.3 °F 21.9 °F 88% 30.35 in 2.0 mi North 8.1 mph - 0.01 in Snow Light Snow
8:01 PM 25.0 °F 15.5 °F 21.9 °F 88% 30.31 in 3.0 mi North 9.2 mph - 0.00 in Snow Light Snow
8:53 PM 25.0 °F - 21.0 °F 85% 30.35 in 8.0 mi North - - 0.00 in Snow Light Snow
9:53 PM 25.0 °F - 21.0 °F 85% 30.39 in 10.0 mi North - - 0.00 in   Overcast
10:27 PM 25.0 °F 14.8 °F 19.9 °F 81% 30.37 in 10.0 mi NW 10.4 mph - N/A   Overcast
10:44 PM 25.0 °F 14.2 °F 19.0 °F 78% 30.38 in 10.0 mi NNW 11.5 mph - N/A   Overcast
10:53 PM 25.0 °F 15.5 °F 19.0 °F 78% 30.41 in 10.0 mi NNW 9.2 mph - N/A   Overcast
11:53 PM 23.0 °F 12.4 °F 18.0 °F 81% 30.43 in 10.0 mi NW 10.4 mph - N/A   Overcast